Time,TemperatureF,DewpointF,PressureIn,WindDirection,WindDirectionDegrees,WindSpeedMPH,WindSpeedGustMPH,Humidity,HourlyPrecipIn,Conditions,Clouds,dailyrainin,SoftwareType,DateUTC
2013-07-13 00:01:00,63.3,59.4,30.34,NNW,338,2.6,0.0,87,0.00,,OVC024,0.00,VWS V13.01,2013-07-13 04:01:00,
2013-07-13 00:02:00,63.3,59.4,30.34,NNW,338,2.6,0.0,87,0.00,,OVC024,0.00,VWS V13.01,2013-07-13 04:02:00,
2013-07-13 00:07:00,63.3,59.4,30.34,NNW,338,2.6,0.0,87,0.00,,OVC024,0.00,VWS V13.01,2013-07-13 04:07:00,
2013-07-13 00:12:00,63.3,59.4,30.34,NNW,338,2.6,0.0,87,0.00,,OVC024,0.00,VWS V13.01,2013-07-13 04:12:00,
2013-07-13 00:17:00,63.3,59.4,30.33,NNW,338,2.6,0.0,87,0.00,,OVC024,0.00,VWS V13.01,2013-07-13 04:17:00,
2013-07-13 00:22:00,63.3,59.4,30.33,NNW,338,2.6,0.0,87,0.00,,OVC024,0.00,VWS V13.01,2013-07-13 04:22:00,
2013-07-13 00:27:00,63.3,59.4,30.33,North,0,2.6,0.0,87,0.00,,OVC024,0.00,VWS V13.01,2013-07-13 04:27:00,
2013-07-13 00:32:00,63.3,59.4,30.33,North,0,2.6,0.0,87,0.00,,OVC031,0.00,VWS V13.01,2013-07-13 04:32:00,
2013-07-13 00:38:00,63.3,59.4,30.33,North,0,2.6,0.0,87,0.00,,OVC031,0.00,VWS V13.01,2013-07-13 04:38:00,
2013-07-13 00:43:00,63.5,59.4,30.33,ENE,68,2.6,0.0,87,0.00,,OVC031,0.00,VWS V13.01,2013-07-13 04:43:00,
2013-07-13 00:48:00,63.3,59.4,30.33,ENE,68,2.6,0.0,87,0.00,,OVC031,0.00,VWS V13.01,2013-07-13 04:48:00,
2013-07-13 00:53:00,63.5,59.4,30.33,ENE,68,2.6,0.0,87,0.00,,OVC031,0.00,VWS V13.01,2013-07-13 04:53:00,
2013-07-13 00:58:00,63.3,59.4,30.32,ENE,68,2.6,0.0,87,0.00,,OVC031,0.00,VWS V13.01,2013-07-13 04:58:00,
2013-07-13 01:03:00,63.3,59.4,30.32,ENE,68,2.6,0.0,87,0.00,,OVC036,0.00,VWS V13.01,2013-07-13 05:03:00,
2013-07-13 01:08:00,63.3,59.4,30.32,ENE,68,2.6,0.0,87,0.00,,OVC036,0.00,VWS V13.01,2013-07-13 05:08:00,
2013-07-13 01:13:00,63.3,59.0,30.32,East,90,2.6,0.0,87,0.00,,OVC036,0.00,VWS V13.01,2013-07-13 05:13:00,
2013-07-13 01:18:00,63.3,59.0,30.33,ESE,112,2.6,0.0,86,0.00,,OVC036,0.00,VWS V13.01,2013-07-13 05:18:00,
2013-07-13 01:23:00,63.1,58.8,30.32,ESE,112,2.6,0.0,86,0.00,,OVC036,0.00,VWS V13.01,2013-07-13 05:23:00,
2013-07-13 01:28:00,63.1,59.2,30.32,ESE,112,2.6,0.0,87,0.00,,OVC036,0.00,VWS V13.01,2013-07-13 05:28:00,
2013-07-13 01:33:00,63.1,59.2,30.33,SE,135,1.5,0.0,87,0.00,,BKN038,0.00,VWS V13.01,2013-07-13 05:33:00,
2013-07-13 01:38:00,63.1,59.2,30.33,SE,135,1.5,0.0,87,0.00,,BKN038,0.00,VWS V13.01,2013-07-13 05:38:00,
2013-07-13 01:43:00,63.1,59.2,30.32,NNE,22,33.1,0.0,87,0.00,,BKN038,0.00,VWS V13.01,2013-07-13 05:43:00,
2013-07-13 01:48:00,63.1,59.2,30.32,SE,135,33.1,0.0,87,0.00,,BKN038,0.00,VWS V13.01,2013-07-13 05:48:00,
2013-07-13 01:53:00,63.1,59.2,30.32,SE,135,33.1,0.0,87,0.00,,BKN038,0.00,VWS V13.01,2013-07-13 05:53:00,
2013-07-13 01:58:00,63.1,59.2,30.32,SE,135,33.1,0.0,87,0.00,,BKN038,0.00,VWS V13.01,2013-07-13 05:58:00,
2013-07-13 02:03:00,63.1,59.2,30.32,SE,135,33.1,0.0,87,0.00,,OVC029,0.00,VWS V13.01,2013-07-13 06:03:00,
2013-07-13 02:08:00,63.1,59.2,30.32,SE,135,33.1,0.0,87,0.00,,OVC029,0.00,VWS V13.01,2013-07-13 06:08:00,
2013-07-13 02:13:00,62.9,59.0,30.33,SE,135,33.1,0.0,87,0.00,,OVC029,0.00,VWS V13.01,2013-07-13 06:13:00,
2013-07-13 02:18:00,62.9,58.8,30.32,SE,135,33.1,0.0,87,0.00,,OVC029,0.00,VWS V13.01,2013-07-13 06:18:00,
2013-07-13 02:23:00,62.7,58.8,30.32,SE,135,33.1,0.0,87,0.00,,OVC029,0.00,VWS V13.01,2013-07-13 06:23:00,
2013-07-13 02:28:00,62.7,58.8,30.33,SE,135,33.1,0.0,87,0.00,,OVC029,0.00,VWS V13.01,2013-07-13 06:28:00,
2013-07-13 02:33:00,62.7,59.0,30.33,SE,135,33.1,0.0,87,0.00,,SCT029,0.00,VWS V13.01,2013-07-13 06:33:00,
2013-07-13 02:38:00,62.9,59.0,30.33,SE,135,33.1,0.0,87,0.00,,SCT029,0.00,VWS V13.01,2013-07-13 06:38:00,
2013-07-13 02:43:00,62.9,59.2,30.33,North,0,33.1,0.0,87,0.00,,SCT029,0.00,VWS V13.01,2013-07-13 06:43:00,
2013-07-13 02:48:00,62.9,59.2,30.33,SE,135,33.1,0.0,88,0.00,,SCT029,0.00,VWS V13.01,2013-07-13 06:48:00,
2013-07-13 02:53:00,63.1,59.5,30.33,SE,135,33.1,0.0,88,0.00,,SCT029,0.00,VWS V13.01,2013-07-13 06:53:00,
2013-07-13 02:58:00,63.1,59.5,30.33,North,0,33.1,0.0,88,0.00,,SCT029,0.00,VWS V13.01,2013-07-13 06:58:00,
2013-07-13 03:03:00,63.1,59.5,30.33,SE,135,33.1,0.0,88,0.00,,BKN040,0.00,VWS V13.01,2013-07-13 07:03:00,
2013-07-13 03:08:00,63.1,59.5,30.32,NE,45,3.8,0.0,88,0.00,,BKN040,0.00,VWS V13.01,2013-07-13 07:08:00,
2013-07-13 03:13:00,63.1,59.5,30.33,SSE,158,3.8,0.0,88,0.00,,BKN040,0.00,VWS V13.01,2013-07-13 07:13:00,
2013-07-13 03:18:00,63.1,59.5,30.33,SSE,158,3.8,0.0,88,0.00,,BKN040,0.00,VWS V13.01,2013-07-13 07:18:00,
2013-07-13 03:23:00,63.1,59.5,30.33,SSE,158,3.8,0.0,88,0.00,,BKN040,0.00,VWS V13.01,2013-07-13 07:23:00,
2013-07-13 03:28:00,63.1,59.5,30.33,SSE,158,3.8,0.0,88,0.00,,BKN040,0.00,VWS V13.01,2013-07-13 07:28:00,
2013-07-13 03:33:00,63.1,59.5,30.33,SE,135,3.8,0.0,88,0.00,,OVC042,0.00,VWS V13.01,2013-07-13 07:33:00,
2013-07-13 03:38:00,63.1,59.5,30.32,ESE,112,3.8,0.0,88,0.00,,OVC042,0.00,VWS V13.01,2013-07-13 07:38:00,
2013-07-13 03:43:00,63.1,59.5,30.33,ESE,112,3.8,0.0,88,0.00,,OVC042,0.00,VWS V13.01,2013-07-13 07:43:00,
2013-07-13 03:48:00,63.1,59.5,30.33,ESE,112,3.8,0.0,88,0.00,,OVC042,0.00,VWS V13.01,2013-07-13 07:48:00,
2013-07-13 03:53:00,63.1,59.5,30.33,ESE,112,3.8,0.0,88,0.00,,OVC042,0.00,VWS V13.01,2013-07-13 07:53:00,
2013-07-13 03:58:00,63.1,59.5,30.33,ESE,112,3.8,0.0,88,0.00,,OVC042,0.00,VWS V13.01,2013-07-13 07:58:00,
2013-07-13 04:03:00,62.9,59.3,30.33,ESE,112,3.8,0.0,88,0.00,,OVC042,0.00,VWS V13.01,2013-07-13 08:03:00,
2013-07-13 04:08:00,62.7,59.3,30.33,ESE,112,3.8,0.0,88,0.00,,OVC042,0.00,VWS V13.01,2013-07-13 08:08:00,
2013-07-13 04:13:00,62.7,59.1,30.33,ESE,112,3.8,0.0,88,0.00,,OVC042,0.00,VWS V13.01,2013-07-13 08:13:00,
2013-07-13 04:14:00,62.7,59.1,30.33,ESE,112,3.8,0.0,88,0.00,,OVC042,0.00,VWS V13.01,2013-07-13 08:14:00,
2013-07-13 04:19:00,62.7,58.8,30.32,NE,45,3.8,0.0,88,0.00,,OVC042,0.00,VWS V13.01,2013-07-13 08:19:00,
2013-07-13 04:24:00,62.4,58.8,30.33,NE,45,3.8,0.0,88,0.00,,OVC042,0.00,VWS V13.01,2013-07-13 08:24:00,
2013-07-13 04:29:00,62.4,58.6,30.33,NE,45,3.8,0.0,88,0.00,,OVC042,0.00,VWS V13.01,2013-07-13 08:29:00,
2013-07-13 04:34:00,62.2,58.6,30.33,ESE,112,3.8,0.0,88,0.00,,SCT046,0.00,VWS V13.01,2013-07-13 08:34:00,
2013-07-13 04:39:00,62.2,58.6,30.33,ESE,112,3.8,0.0,88,0.00,,SCT046,0.00,VWS V13.01,2013-07-13 08:39:00,
2013-07-13 04:44:00,62.2,58.6,30.33,ESE,112,3.8,0.0,88,0.00,,SCT046,0.00,VWS V13.01,2013-07-13 08:44:00,
2013-07-13 04:49:00,62.2,58.6,30.33,ESE,112,3.8,0.0,89,0.00,,SCT046,0.00,VWS V13.01,2013-07-13 08:49:00,
2013-07-13 04:55:00,62.4,58.6,30.33,ESE,112,3.8,0.0,89,0.00,,SCT046,0.00,VWS V13.01,2013-07-13 08:55:00,
2013-07-13 05:00:00,62.4,59.1,30.33,ESE,112,3.8,0.0,89,0.00,,SCT046,0.00,VWS V13.01,2013-07-13 09:00:00,
2013-07-13 05:05:00,62.4,59.1,30.33,ESE,112,3.8,0.0,89,0.00,,SCT017,0.00,VWS V13.01,2013-07-13 09:05:00,
2013-07-13 05:10:00,62.2,58.9,30.33,ESE,112,3.8,0.0,89,0.00,,SCT017,0.00,VWS V13.01,2013-07-13 09:10:00,
2013-07-13 05:15:00,62.2,58.9,30.33,ESE,112,3.8,0.0,89,0.00,,SCT017,0.00,VWS V13.01,2013-07-13 09:15:00,
2013-07-13 05:20:00,62.2,58.9,30.33,ESE,112,3.8,0.0,89,0.00,,SCT017,0.00,VWS V13.01,2013-07-13 09:20:00,
2013-07-13 05:25:00,62.2,58.7,30.33,ESE,112,3.8,0.0,89,0.00,,SCT017,0.00,VWS V13.01,2013-07-13 09:25:00,
2013-07-13 05:30:00,62.0,58.7,30.33,ESE,112,3.8,0.0,89,0.00,,SCT017,0.00,VWS V13.01,2013-07-13 09:30:00,
2013-07-13 05:35:00,62.0,58.7,30.33,ESE,112,3.8,0.0,89,0.00,,SCT012,0.00,VWS V13.01,2013-07-13 09:35:00,
2013-07-13 05:40:00,62.0,58.7,30.33,ESE,112,3.8,0.0,89,0.00,,SCT012,0.00,VWS V13.01,2013-07-13 09:40:00,
2013-07-13 05:45:00,61.8,58.5,30.34,ESE,112,3.8,0.0,89,0.00,,SCT012,0.00,VWS V13.01,2013-07-13 09:45:00,
2013-07-13 05:50:00,61.8,58.7,30.34,SE,135,3.8,0.0,89,0.00,,SCT012,0.00,VWS V13.01,2013-07-13 09:50:00,
2013-07-13 05:55:00,62.0,58.7,30.34,North,0,3.8,0.0,89,0.00,,SCT012,0.00,VWS V13.01,2013-07-13 09:55:00,
2013-07-13 06:00:00,62.2,59.2,30.34,East,90,1.5,0.0,89,0.00,,SCT012,0.00,VWS V13.01,2013-07-13 10:00:00,
2013-07-13 06:05:00,62.2,59.2,30.35,NE,45,1.5,0.0,90,0.00,,SCT016,0.00,VWS V13.01,2013-07-13 10:05:00,
2013-07-13 06:10:00,62.4,59.2,30.35,ESE,112,1.5,0.0,90,0.00,,SCT016,0.00,VWS V13.01,2013-07-13 10:10:00,
2013-07-13 06:15:00,62.4,59.4,30.35,ESE,112,1.5,0.0,90,0.00,,SCT016,0.00,VWS V13.01,2013-07-13 10:15:00,
2013-07-13 06:20:00,62.6,59.6,30.35,ESE,112,1.5,0.0,90,0.00,,SCT016,0.00,VWS V13.01,2013-07-13 10:20:00,
2013-07-13 06:25:00,62.7,59.7,30.35,NNW,338,1.5,0.0,90,0.00,,SCT016,0.00,VWS V13.01,2013-07-13 10:25:00,
2013-07-13 06:30:00,62.7,59.9,30.35,East,90,1.5,0.0,90,0.00,,SCT016,0.00,VWS V13.01,2013-07-13 10:30:00,
2013-07-13 06:36:00,62.9,59.9,30.35,East,90,1.5,0.0,90,0.00,,OVC032,0.00,VWS V13.01,2013-07-13 10:36:00,
2013-07-13 06:41:00,62.9,59.9,30.35,ENE,68,2.6,0.0,90,0.00,,OVC032,0.00,VWS V13.01,2013-07-13 10:41:00,
2013-07-13 06:46:00,62.9,59.9,30.35,ESE,112,2.6,0.0,90,0.00,,OVC032,0.00,VWS V13.01,2013-07-13 10:46:00,
2013-07-13 06:51:00,63.1,60.1,30.35,SE,135,2.6,0.0,90,0.00,,OVC032,0.00,VWS V13.01,2013-07-13 10:51:00,
2013-07-13 06:56:00,63.3,60.3,30.35,SSW,202,2.6,0.0,90,0.00,,OVC032,0.00,VWS V13.01,2013-07-13 10:56:00,
2013-07-13 07:01:00,63.3,60.3,30.35,South,180,2.6,0.0,90,0.00,,OVC032,0.00,VWS V13.01,2013-07-13 11:01:00,
2013-07-13 07:06:00,63.3,60.3,30.36,SSE,158,2.6,0.0,90,0.00,,BKN042,0.00,VWS V13.01,2013-07-13 11:06:00,
2013-07-13 07:11:00,63.3,60.3,30.36,SSE,158,2.6,0.0,90,0.00,,BKN042,0.00,VWS V13.01,2013-07-13 11:11:00,
2013-07-13 07:16:00,63.3,60.5,30.36,SSE,158,2.6,0.0,89,0.00,,BKN042,0.00,VWS V13.01,2013-07-13 11:16:00,
2013-07-13 07:21:00,63.5,60.2,30.36,SSE,158,2.6,0.0,89,0.00,,BKN042,0.00,VWS V13.01,2013-07-13 11:21:00,
2013-07-13 07:26:00,63.5,60.3,30.36,SSE,158,2.6,0.0,89,0.00,,BKN042,0.00,VWS V13.01,2013-07-13 11:26:00,
2013-07-13 07:31:00,63.6,60.2,30.36,ESE,112,2.6,0.0,89,0.00,,BKN042,0.00,VWS V13.01,2013-07-13 11:31:00,
2013-07-13 07:36:00,63.6,60.3,30.36,ESE,112,2.6,0.0,89,0.00,,OVC013,0.00,VWS V13.01,2013-07-13 11:36:00,
2013-07-13 07:41:00,63.8,60.5,30.36,SE,135,2.6,0.0,89,0.00,,OVC013,0.00,VWS V13.01,2013-07-13 11:41:00,
2013-07-13 07:46:00,64.0,60.7,30.36,ESE,112,2.6,0.0,89,0.00,,OVC013,0.00,VWS V13.01,2013-07-13 11:46:00,
2013-07-13 07:51:00,64.0,60.7,30.37,East,90,2.6,0.0,89,0.00,,OVC013,0.00,VWS V13.01,2013-07-13 11:51:00,
2013-07-13 07:56:00,64.0,60.7,30.37,ESE,112,0.6,0.0,89,0.00,,OVC013,0.00,VWS V13.01,2013-07-13 11:56:00,
2013-07-13 08:01:00,64.0,60.9,30.37,ESE,112,0.6,0.0,89,0.00,,OVC013,0.00,VWS V13.01,2013-07-13 12:01:00,
2013-07-13 08:06:00,64.2,60.9,30.37,SE,135,1.5,0.0,89,0.00,,OVC013,0.00,VWS V13.01,2013-07-13 12:06:00,
2013-07-13 08:12:00,64.4,60.9,30.38,ESE,112,1.5,0.0,90,0.00,,OVC013,0.00,VWS V13.01,2013-07-13 12:12:00,